TimeHST,TemperatureF,Dew PointF,Humidity,Sea Level PressureIn,VisibilityMPH,Wind Direction,Wind SpeedMPH,Gust SpeedMPH,PrecipitationIn,Events,Conditions,WindDirDegrees,DateUTC
12:53 AM,66.9,61.0,81,30.08,10.0,Calm,Calm,-,N/A,,Mostly Cloudy,0,2013-01-23 10:53:00
1:53 AM,66.0,60.1,81,30.06,10.0,WSW,4.6,-,N/A,,Overcast,250,2013-01-23 11:53:00
2:53 AM,64.0,57.9,80,30.04,10.0,SW,5.8,-,N/A,,Clear,230,2013-01-23 12:53:00
3:41 AM,63.0,57.0,81,30.04,10.0,SE,3.5,-,N/A,,Overcast,140,2013-01-23 13:41:00
3:48 AM,62.6,57.2,82,30.04,10.0,South,3.5,-,N/A,,Overcast,180,2013-01-23 13:48:00
3:53 AM,64.0,57.0,78,30.05,10.0,East,3.5,-,N/A,,Overcast,100,2013-01-23 13:53:00
4:38 AM,63.0,59.0,87,30.06,10.0,SW,5.8,-,0.00,,Overcast,230,2013-01-23 14:38:00
4:49 AM,62.6,57.2,82,30.06,10.0,SW,8.1,-,0.00,,Overcast,230,2013-01-23 14:49:00
4:53 AM,63.0,59.0,87,30.06,10.0,SW,6.9,-,0.00,,Overcast,230,2013-01-23 14:53:00
5:04 AM,64.0,59.0,84,30.06,10.0,WSW,6.9,-,0.00,Rain,Light Rain,240,2013-01-23 15:04:00
5:27 AM,64.0,60.1,87,30.07,4.0,Calm,Calm,-,0.01,Rain,Light Rain,0,2013-01-23 15:27:00
5:53 AM,64.0,60.1,87,30.07,10.0,WSW,8.1,-,0.01,,Overcast,240,2013-01-23 15:53:00
6:23 AM,62.1,57.9,86,30.08,10.0,SW,5.8,-,N/A,,Overcast,230,2013-01-23 16:23:00
6:53 AM,63.0,57.9,84,30.08,10.0,WSW,6.9,-,N/A,,Overcast,250,2013-01-23 16:53:00
7:53 AM,64.9,60.1,84,30.09,10.0,WSW,9.2,-,N/A,,Mostly Cloudy,240,2013-01-23 17:53:00
8:53 AM,70.0,62.1,76,30.10,10.0,West,4.6,-,N/A,,Mostly Cloudy,260,2013-01-23 18:53:00
9:53 AM,71.1,63.0,75,30.12,8.0,ENE,8.1,-,N/A,,Overcast,70,2013-01-23 19:53:00
10:05 AM,72.0,64.0,76,30.12,10.0,Calm,Calm,-,N/A,,Mostly Cloudy,0,2013-01-23 20:05:00
10:20 AM,72.0,63.0,73,30.11,10.0,Calm,Calm,-,N/A,,Mostly Cloudy,0,2013-01-23 20:20:00
10:53 AM,70.0,64.9,84,30.11,10.0,Calm,Calm,-,0.00,,Overcast,0,2013-01-23 20:53:00
11:39 AM,71.1,64.0,78,30.10,8.0,Variable,4.6,-,0.00,Rain,Light Rain,0,2013-01-23 21:39:00
11:53 AM,71.1,66.9,87,30.08,8.0,WSW,8.1,-,0.00,Rain,Light Rain,240,2013-01-23 21:53:00
12:05 PM,72.0,66.0,81,30.08,10.0,West,6.9,-,0.00,,Scattered Clouds,270,2013-01-23 22:05:00
12:20 PM,72.0,64.9,78,30.07,10.0,SW,4.6,-,0.00,Rain,Light Rain,220,2013-01-23 22:20:00
12:53 PM,73.0,64.0,73,30.06,10.0,ESE,6.9,-,0.00,,Mostly Cloudy,120,2013-01-23 22:53:00
1:31 PM,73.9,66.0,76,30.04,10.0,Calm,Calm,-,N/A,,Mostly Cloudy,0,2013-01-23 23:31:00
1:53 PM,73.9,64.0,71,30.03,10.0,East,15.0,-,N/A,,Mostly Cloudy,100,2013-01-23 23:53:00
2:53 PM,73.9,62.1,66,30.01,10.0,East,15.0,-,N/A,,Overcast,100,2013-01-24 00:53:00
3:53 PM,73.9,62.1,66,30.02,10.0,SE,9.2,-,N/A,,Overcast,130,2013-01-24 01:53:00
4:53 PM,73.0,63.0,71,30.02,10.0,SE,9.2,-,N/A,,Overcast,140,2013-01-24 02:53:00
5:53 PM,72.0,63.0,73,30.04,10.0,South,4.6,-,N/A,,Overcast,180,2013-01-24 03:53:00
6:53 PM,70.0,63.0,78,30.06,10.0,ESE,5.8,-,0.00,Rain,Light Rain,120,2013-01-24 04:53:00
7:53 PM,69.1,64.9,87,30.08,10.0,SW,4.6,-,0.03,,Overcast,220,2013-01-24 05:53:00
8:17 PM,69.1,64.9,87,30.08,9.0,Calm,Calm,-,0.00,Rain,Light Rain,0,2013-01-24 06:17:00
8:25 PM,69.1,64.9,87,30.08,10.0,Calm,Calm,-,0.00,Rain,Light Rain,0,2013-01-24 06:25:00
8:53 PM,69.1,64.9,87,30.09,8.0,SW,4.6,-,0.00,Rain,Light Rain,230,2013-01-24 06:53:00
9:08 PM,69.1,64.9,87,30.09,8.0,WSW,3.5,-,0.01,Rain,Light Rain,240,2013-01-24 07:08:00
9:50 PM,68.0,64.4,88,30.09,9.0,SSW,5.8,-,0.02,Rain,Light Rain,210,2013-01-24 07:50:00
9:53 PM,68.0,64.9,90,30.09,10.0,SW,5.8,-,0.02,Rain,Light Rain,230,2013-01-24 07:53:00
10:53 PM,68.0,64.0,87,30.09,8.0,SSE,5.8,-,0.00,,Overcast,150,2013-01-24 08:53:00
11:01 PM,66.9,64.0,90,30.09,4.0,SSW,5.8,-,0.00,Rain,Light Rain,210,2013-01-24 09:01:00
11:17 PM,66.9,64.0,90,30.09,10.0,WSW,5.8,-,0.02,,Overcast,240,2013-01-24 09:17:00
11:26 PM,66.9,64.0,90,30.09,10.0,WSW,5.8,-,0.02,,Overcast,240,2013-01-24 09:26:00
11:53 PM,66.9,64.0,90,30.08,10.0,WSW,6.9,-,0.02,,Mostly Cloudy,250,2013-01-24 09:53:00